Theta_e
329 329 329 328 329 330 331 334 335 337 337 336 338 342 343 342 345 345 344 345 345 343 344 342 337 338 337 338 338 339 340 339 341 339 338 338 339 340 347 353 354 354 355 351 350 355 354 349 349 349 348 350 346 343 345 344 345 345 347 353 349 344 343 345 345 346 341 339 339 343 343 345 349 350 345 344 344 344 345 344 345 346 345 344 345
329 328 328 328 327 329 331 333 337 334 334 335 335 340 340 342 343 344 342 343 343 344 344 341 338 338 336 335 336 337 338 340 337 336 336 338 338 339 345 350 353 354 356 352 352 350 350 351 351 350 349 346 347 350 346 356 353 351 349 345 349 344 343 345 346 344 338 337 334 337 339 341 347 352 347 345 344 343 344 343 343 344 344 345 346
327 327 326 327 327 328 329 332 333 335 334 335 335 338 338 341 342 342 341 342 342 344 343 340 339 341 338 335 336 335 338 340 340 340 340 338 337 337 344 348 351 353 353 355 351 351 350 350 350 350 348 348 346 343 347 349 349 347 347 344 342 346 346 348 346 344 338 344 342 337 333 334 340 341 348 346 344 343 343 343 345 344 345 345 346
325 325 325 326 326 327 328 330 331 333 332 334 334 336 338 342 341 341 340 343 343 344 347 342 342 341 341 339 338 337 336 343 340 340 337 340 342 340 343 348 350 351 353 354 354 351 351 350 351 350 349 349 344 341 343 345 346 347 348 348 345 342 344 344 350 346 343 341 334 336 334 336 331 332 338 341 344 344 343 343 344 344 345 344 344
324 325 325 325 325 325 325 330 328 330 329 331 334 336 338 340 340 340 339 342 344 347 348 344 345 344 341 343 350 347 351 345 337 335 336 344 348 346 346 349 350 350 352 354 355 353 353 353 351 351 350 349 349 346 345 346 344 344 346 347 347 344 342 343 346 348 346 345 340 337 333 331 331 335 338 336 341 341 341 341 341 343 342 342 343
324 325 324 324 325 324 323 328 326 329 326 331 335 336 338 340 340 339 338 341 344 344 347 345 345 341 341 341 339 340 339 340 334 334 333 342 347 347 348 350 350 350 351 355 355 356 354 355 354 353 351 350 349 347 345 344 343 343 344 345 345 347 344 342 342 347 349 349 346 343 339 334 333 336 335 329 339 342 341 340 338 336 338 341 342
323 325 323 324 324 324 323 326 325 327 326 332 334 334 339 339 340 339 338 340 344 344 345 347 341 341 342 341 340 341 339 341 338 335 334 342 347 346 348 350 351 350 351 354 356 357 356 355 354 353 352 350 351 347 344 344 343 343 344 343 344 347 346 342 342 343 346 348 350 347 346 344 342 338 332 334 331 333 336 337 335 334 334 335 340
323 323 323 324 324 324 322 325 325 328 327 332 332 333 338 338 339 339 339 342 343 345 344 345 341 341 342 340 343 341 341 340 340 339 338 344 343 344 346 349 351 352 352 353 355 356 356 354 353 352 351 350 349 348 346 346 346 347 349 348 346 346 345 344 342 343 341 341 349 346 346 348 345 343 339 336 333 330 333 336 332 333 334 333 334
325 322 323 324 324 324 325 324 327 328 327 331 331 333 337 337 339 339 339 341 342 344 343 342 343 341 341 341 341 344 341 340 342 347 343 348 339 340 343 347 349 350 351 352 352 353 357 355 353 352 350 350 352 348 348 348 347 347 348 348 348 347 347 346 344 343 344 343 343 344 344 344 346 344 343 341 335 330 330 328 328 331 333 334 334
325 323 325 326 325 326 326 326 328 329 328 331 332 333 336 336 337 338 338 340 342 343 343 342 343 346 341 341 340 340 344 341 340 336 335 338 339 343 341 345 348 348 348 349 350 350 351 354 354 352 351 350 353 349 348 349 349 349 350 349 349 347 346 348 346 344 344 345 344 344 342 342 341 340 340 339 338 336 330 326 327 328 328 330 336
325 322 327 327 326 326 328 327 328 330 329 329 331 332 335 335 336 336 337 339 342 342 343 345 345 346 342 342 342 341 343 341 338 338 338 341 337 340 342 343 347 347 347 349 349 348 347 349 351 351 352 355 354 351 350 349 350 350 351 350 350 347 345 345 348 348 346 345 345 344 343 342 340 339 338 337 334 330 328 328 329 330 330 330 333
327 323 329 328 326 325 329 328 328 330 329 329 330 332 334 335 336 335 336 338 341 342 343 348 348 347 344 345 343 344 344 345 341 339 339 339 340 338 343 345 345 347 347 347 348 349 348 347 350 350 350 351 352 352 352 351 351 352 351 350 348 347 345 347 344 344 346 346 346 346 345 344 343 342 342 341 337 335 332 331 330 330 332 332 334
329 326 330 329 326 324 328 329 329 329 330 329 330 333 333 334 335 335 336 337 342 341 341 347 349 348 346 346 345 346 345 345 343 341 340 340 341 343 342 344 345 344 344 345 346 347 349 348 348 349 349 351 353 353 353 352 352 352 351 350 348 346 345 345 346 346 346 346 346 348 347 345 344 345 344 342 341 338 334 329 329 333 329 329 333
330 330 331 330 329 326 328 331 331 330 331 331 330 333 334 335 335 334 336 337 343 341 341 343 349 350 349 348 348 349 348 348 345 342 340 340 342 341 341 343 344 345 344 343 345 345 345 347 350 349 350 351 353 353 353 353 353 351 350 349 348 348 347 346 346 348 347 348 348 346 346 346 345 345 344 343 341 336 331 330 329 333 335 331 335
331 331 331 331 330 329 329 331 332 332 331 331 331 331 334 334 335 335 335 337 344 342 342 341 346 349 350 350 350 349 349 350 350 348 344 341 342 341 340 340 343 345 346 346 347 345 344 343 345 348 349 349 350 352 353 352 352 351 350 348 349 347 346 346 346 346 345 345 347 347 347 345 345 344 344 345 342 337 335 334 332 328 328 332 332
331 331 331 332 332 331 331 331 333 333 331 331 332 331 335 335 336 335 336 338 344 345 345 342 344 347 349 350 350 351 354 352 351 353 352 349 347 345 344 343 341 342 344 346 346 347 346 345 345 345 346 347 349 350 350 350 350 349 348 348 346 349 345 345 346 347 346 346 346 346 345 345 345 345 343 342 342 341 337 337 335 331 328 326 330
331 331 331 332 333 333 332 332 333 334 332 331 331 332 334 336 336 336 337 339 343 346 347 345 345 346 348 350 351 352 353 352 351 351 352 352 352 350 348 348 346 344 344 346 345 346 347 347 346 345 346 349 350 351 352 351 351 350 348 347 346 347 348 346 349 350 350 351 352 350 350 349 346 343 342 344 344 346 346 345 340 336 333 328 325
331 331 331 333 333 334 333 333 333 334 334 333 332 332 335 337 337 337 338 339 341 346 348 349 348 348 349 351 352 353 355 356 355 354 354 354 354 354 352 350 349 349 349 348 346 345 346 352 348 345 345 349 351 351 351 351 351 350 350 350 352 355 354 354 354 352 350 350 351 348 346 348 344 342 344 345 345 345 348 344 345 344 338 332 330
330 330 330 332 333 333 333 333 334 334 335 334 333 332 336 338 339 338 339 340 341 346 349 351 352 351 352 354 355 355 356 357 357 358 357 356 356 356 356 355 354 354 354 352 350 345 342 343 345 345 347 349 350 351 353 350 348 346 350 352 353 352 351 350 351 353 353 354 353 350 346 343 343 343 344 344 343 344 345 347 345 344 339 337 332
329 330 330 331 333 334 334 333 333 333 334 335 333 333 337 339 341 340 341 342 342 344 349 350 352 353 353 355 356 357 358 357 356 356 355 355 356 357 357 356 356 355 348 350 350 351 351 350 352 355 355 354 354 356 358 355 352 350 349 346 344 345 345 346 347 348 347 346 347 346 340 339 340 343 343 344 343 344 345 342 340 342 341 339 336
328 330 330 331 332 334 335 335 335 334 335 335 333 333 339 340 341 342 341 342 343 344 346 348 350 351 351 351 354 355 355 356 355 352 350 349 349 350 349 346 354 355 359 360 360 360 360 360 361 360 358 356 356 357 359 353 349 345 343 343 343 343 342 343 343 341 342 342 344 343 340 340 340 340 341 342 342 341 342 341 340 341 341 339 336
327 329 330 331 332 333 335 336 335 334 334 333 332 333 339 340 342 343 343 344 344 345 347 348 349 350 349 350 351 352 354 352 352 352 352 350 362 358 358 359 360 360 361 359 358 357 356 355 355 357 353 349 347 344 346 351 351 346 344 345 343 342 340 341 342 342 342 342 342 341 341 340 340 340 339 338 337 338 340 338 337 338 338 338 340
327 329 330 331 332 333 334 334 333 333 333 333 332 333 338 340 343 344 343 344 346 347 349 350 350 349 350 350 349 349 352 348 350 355 361 363 363 360 360 358 357 358 359 357 353 351 350 348 346 343 340 338 338 336 336 337 338 339 342 343 343 342 342 344 344 344 343 343 342 341 341 343 341 339 338 338 339 339 341 340 339 340 340 341 341
328 327 330 331 332 333 333 333 332 332 332 332 332 332 338 340 343 344 344 345 347 348 350 351 350 350 349 348 352 356 355 358 359 360 358 359 359 358 358 356 355 354 352 352 350 348 347 344 340 336 333 332 332 331 330 331 332 332 331 332 333 334 334 334 336 336 338 338 338 338 337 340 343 340 339 339 340 341 342 343 342 342 341 340 339
328 326 328 330 330 331 332 332 331 331 331 332 332 332 338 340 343 344 345 346 348 350 350 351 351 350 349 349 356 357 359 360 359 358 356 355 355 354 354 350 348 348 348 347 347 346 343 338 335 332 329 329 328 328 326 326 327 328 327 328 329 330 329 330 332 333 335 334 334 333 334 334 334 335 337 340 340 340 340 340 339 340 340 340 338
328 326 327 329 330 331 331 331 331 331 331 332 332 333 338 341 342 345 345 346 349 351 351 351 351 350 351 358 359 357 356 355 355 354 353 352 351 350 348 348 347 345 345 345 344 342 338 333 332 330 328 327 327 326 325 324 324 324 324 324 325 326 326 326 328 329 329 330 330 330 331 332 331 329 330 331 333 335 336 336 337 337 338 339 338
328 327 327 329 329 329 330 331 332 332 333 333 334 334 337 342 342 345 346 348 351 352 352 352 356 358 360 358 356 355 354 353 352 351 350 349 348 347 346 345 346 344 343 342 341 337 334 331 329 328 327 327 326 325 324 323 323 322 322 322 322 322 323 324 325 326 326 327 327 328 329 330 330 330 330 330 332 333 334 334 336 335 336 336 337
328 327 327 328 329 329 330 331 332 332 335 334 336 336 340 341 343 346 347 349 353 354 357 359 359 357 355 354 354 353 352 352 350 348 346 345 345 345 345 345 343 341 340 340 337 332 330 329 328 327 327 327 325 324 324 323 323 322 321 320 320 322 321 322 323 324 325 326 326 327 328 329 330 331 332 332 332 331 331 331 333 334 335 333 333
328 327 327 329 329 329 330 331 332 335 335 334 343 346 342 345 350 353 353 355 359 360 358 357 355 354 353 353 352 351 348 347 346 344 343 342 342 341 341 341 341 340 340 337 333 329 326 325 325 324 324 324 324 324 325 324 323 323 322 321 320 320 321 321 322 323 324 324 324 325 326 327 331 334 335 336 335 335 333 332 332 332 334 332 331
329 327 328 330 330 331 331 331 334 339 342 348 350 350 350 353 358 360 360 361 359 357 355 354 353 352 351 350 349 347 345 344 342 341 340 340 340 340 339 338 337 337 337 335 330 328 325 323 322 322 322 323 323 324 328 328 327 324 322 321 320 320 320 320 321 321 320 321 322 322 325 329 331 332 332 333 334 335 336 335 333 332 332 331 330
333 329 328 331 331 331 331 334 343 347 351 353 355 356 357 358 360 360 359 358 357 355 353 351 349 348 346 344 343 342 342 340 340 339 338 338 338 337 336 335 335 334 334 334 330 326 324 323 322 321 321 322 322 324 326 324 325 326 325 321 319 318 319 319 319 319 319 321 321 321 322 326 328 330 330 331 333 334 334 334 335 335 334 334 331
333 333 332 334 332 331 334 344 352 354 355 357 358 358 358 359 360 358 357 356 354 352 350 348 347 345 343 342 341 340 339 338 337 336 335 335 335 334 334 333 332 330 329 329 329 327 325 323 323 321 321 322 322 325 323 324 325 325 326 320 318 318 319 319 318 318 319 319 320 321 322 324 325 327 329 329 331 332 333 333 333 334 335 337 337
338 338 338 335 332 334 341 353 356 357 357 359 360 359 359 358 356 356 355 352 350 349 347 346 344 342 341 340 339 338 337 336 335 334 334 333 332 332 332 330 328 328 326 325 325 327 325 324 322 320 320 321 320 324 323 323 323 323 324 323 317 317 318 318 318 318 318 318 319 320 321 323 323 328 329 328 327 327 332 333 333 334 335 334 335
344 345 340 336 341 345 350 357 358 359 360 361 361 359 358 357 355 354 351 349 348 347 344 342 341 341 340 339 337 336 334 333 333 333 332 332 331 329 329 329 327 326 324 324 324 323 324 324 322 321 320 319 319 322 321 321 321 322 323 322 317 317 318 317 318 318 318 318 319 319 319 320 321 324 327 328 326 325 325 326 326 325 326 332 336
346 347 346 347 353 355 357 358 359 360 361 360 358 357 355 353 352 350 349 347 345 342 341 340 340 339 338 336 335 334 332 331 331 330 330 330 329 326 326 326 326 324 323 322 322 322 324 325 322 320 318 318 319 321 320 320 320 320 322 322 316 317 317 317 317 319 320 320 319 320 320 321 322 326 327 328 326 325 324 324 323 323 324 329 329
348 349 351 355 358 358 359 359 361 360 359 358 355 355 352 351 351 348 346 344 342 341 339 339 338 337 336 335 334 332 331 330 329 329 328 328 327 326 325 327 326 324 324 324 323 323 321 321 321 320 318 317 318 320 319 320 319 319 322 318 316 316 316 317 317 319 320 321 322 322 322 323 324 326 326 327 327 326 322 322 322 321 321 326 327
351 353 355 358 360 360 360 360 359 357 356 355 354 353 350 348 345 343 342 341 340 339 338 338 337 336 335 333 331 330 329 328 328 327 325 324 323 323 324 325 322 322 321 322 321 322 322 322 323 320 317 316 318 321 319 319 319 319 321 315 315 316 316 317 317 319 321 322 324 325 326 325 325 325 325 324 326 328 319 320 319 319 321 323 323
353 354 356 358 360 361 360 358 356 355 354 353 352 350 347 344 341 341 340 339 338 337 337 336 335 335 333 332 331 329 329 328 327 325 324 324 324 323 323 325 321 321 321 321 321 321 321 323 322 320 321 317 316 320 320 317 317 318 320 315 315 315 315 317 318 320 322 324 326 329 327 324 323 323 323 322 324 325 318 318 318 317 319 318 320
353 354 355 358 359 359 357 356 354 352 352 352 349 346 343 341 340 339 338 337 336 336 335 334 333 333 332 331 330 329 328 327 326 325 325 324 323 324 325 323 322 322 322 322 323 319 319 320 321 321 324 317 315 318 320 316 316 316 318 315 314 314 315 316 317 320 322 323 324 326 327 323 321 320 319 320 321 324 318 317 317 316 315 316 317
353 356 358 359 359 356 354 353 351 351 351 349 347 344 342 340 339 338 337 335 335 335 334 333 331 331 330 330 330 329 327 326 325 325 325 324 325 323 321 322 321 321 321 320 320 319 316 316 317 316 319 318 316 315 321 315 315 315 316 317 313 313 314 315 317 321 321 322 324 324 326 324 318 318 318 317 317 319 319 318 316 314 314 314 318
351 353 354 357 356 355 353 352 351 350 349 347 345 342 339 339 338 336 335 334 334 333 332 331 330 330 329 328 328 328 327 326 325 325 326 326 324 322 322 322 321 321 320 319 318 317 317 315 315 316 315 315 319 319 319 317 314 313 314 316 312 313 313 315 316 320 319 321 322 323 324 327 319 318 317 315 313 316 323 319 314 314 316 320 323
350 351 353 355 354 352 351 350 350 348 347 344 342 339 338 337 335 333 333 333 332 331 330 330 329 328 328 328 327 327 327 326 326 324 322 322 322 323 323 322 321 320 319 318 317 318 315 314 314 315 316 314 318 322 318 318 315 312 311 313 313 314 317 316 317 318 320 321 322 322 324 325 319 318 316 313 313 315 320 320 318 317 318 320 324
350 352 352 352 350 349 348 347 347 346 344 342 340 337 336 335 333 332 333 332 331 330 329 329 329 328 328 326 327 328 327 327 325 324 322 322 323 323 322 321 318 316 315 314 313 313 312 311 311 312 312 314 314 317 320 318 316 311 310 311 312 314 315 319 316 317 319 320 322 323 324 324 317 314 314 317 318 321 327 320 316 316 318 322 330
351 351 349 350 348 347 345 344 344 343 341 340 339 336 335 333 331 332 332 331 330 329 329 329 329 327 326 328 328 327 325 324 323 322 321 320 321 321 320 319 316 313 311 311 310 312 310 311 311 311 312 312 313 312 316 318 316 313 310 309 310 312 314 316 319 317 320 320 320 322 322 315 313 311 315 319 321 326 321 316 320 325 328 330 325
347 347 348 348 345 343 341 340 340 339 339 338 338 336 334 331 331 332 330 329 329 329 329 327 326 326 326 325 324 323 323 323 322 321 320 320 319 319 317 316 315 311 310 310 310 312 310 311 310 311 310 310 311 310 310 314 316 315 312 311 313 315 315 316 320 320 322 321 319 314 313 315 317 318 320 323 325 327 322 321 321 326 329 322 323
344 342 342 341 341 340 339 336 336 337 336 336 336 335 332 330 331 331 329 329 329 328 327 325 325 325 324 324 323 322 321 321 321 321 321 319 319 318 316 314 314 313 312 312 312 312 312 311 308 308 308 309 310 308 308 309 315 314 314 314 315 318 323 323 323 321 324 322 319 318 319 320 324 325 328 327 328 330 330 330 330 330 324 322 320
337 339 340 340 339 337 335 335 333 334 335 335 334 333 332 331 330 330 329 329 328 328 328 326 323 322 322 321 319 317 317 317 317 317 317 317 316 316 317 316 313 312 313 313 313 313 312 310 308 308 307 308 307 307 307 307 307 306 308 310 313 316 321 323 321 319 320 318 322 325 324 322 323 325 326 327 327 328 327 325 322 322 324 322 322
336 338 339 338 337 335 334 334 333 333 334 334 333 332 331 331 330 330 330 329 329 328 325 323 322 322 321 320 321 324 318 313 313 312 311 311 312 313 313 313 312 311 310 309 309 310 311 308 305 306 305 306 307 307 307 306 305 305 306 307 311 313 313 315 317 318 318 321 319 323 321 320 320 318 318 316 317 317 319 321 319 320 319 322 326
334 336 337 335 334 334 333 333 332 332 332 332 331 331 330 329 330 330 330 329 328 329 325 323 322 322 322 323 319 316 314 312 310 310 309 308 309 309 309 308 308 307 310 310 309 309 311 307 306 305 305 307 308 307 310 310 307 305 306 305 309 309 312 315 320 317 317 317 316 314 315 315 315 316 315 313 313 314 315 316 318 318 317 317 318
333 335 335 334 334 332 331 331 331 331 331 330 329 329 329 330 330 329 329 328 328 325 324 323 322 321 319 317 315 313 312 312 310 309 309 310 313 308 308 309 310 316 312 309 310 309 308 306 307 309 308 305 305 307 309 300 298 300 303 303 305 303 305 314 316 317 321 314 314 313 313 313 313 312 312 313 312 312 312 312 313 319 317 316 316
334 333 332 332 332 332 331 331 330 331 330 329 328 328 328 328 328 328 328 327 325 325 323 322 322 320 319 317 314 311 310 308 308 307 307 308 306 307 299 303 314 313 303 294 294 299 306 312 312 304 309 316 315 309 300 297 299 300 300 299 300 301 302 304 308 315 314 313 312 313 313 314 314 312 313 313 313 312 313 312 312 313 313 315 315
Wind_Speed
6 11 11 10 12 13 11 13 12 13 13 13 14 15 15 13 11 12 10 10 8 8 7 8 6 6 4 7 7 6 7 6 7 6 6 7 7 7 7 7 7 7 7 6 7 6 6 5 3 3 2 2 3 4 4 4 4 4 2 1 3 3 3 3 3 1 3 6 5 4 5 3 4 4 6 5 6 6 6 6 5 4 6 6 7
8 11 10 10 10 13 10 13 12 14 12 13 13 15 14 14 13 12 8 10 10 9 9 9 6 6 7 7 6 6 6 6 7 6 7 7 7 7 7 9 9 8 7 7 7 6 6 6 5 4 3 3 4 4 4 4 4 3 1 2 2 3 4 3 2 1 3 2 4 5 5 5 4 3 3 5 6 6 6 6 6 6 8 8 7
9 14 9 10 11 10 11 12 13 15 14 14 13 14 13 13 12 11 9 10 10 9 8 8 6 6 6 6 7 5 5 6 7 8 8 8 9 9 9 9 9 9 8 7 7 6 6 6 6 5 4 4 4 5 4 4 4 4 3 4 4 2 4 4 4 3 3 1 1 2 3 5 6 5 2 1 4 5 5 6 7 7 10 8 7
9 12 9 10 9 10 10 12 12 13 12 12 13 15 12 11 11 11 10 10 9 9 9 8 7 6 6 6 6 7 6 6 7 6 4 6 8 9 9 9 9 10 9 8 7 6 6 7 7 6 7 5 5 5 4 6 5 4 4 4 3 4 2 4 4 3 4 3 3 2 1 1 6 2 3 6 4 4 6 7 6 7 9 8 5
9 11 9 8 9 12 11 14 11 13 11 12 13 14 10 14 13 12 10 10 10 9 10 8 6 5 4 4 2 4 4 3 4 6 5 5 4 4 8 8 10 10 9 9 8 8 7 7 7 7 6 5 5 5 6 7 7 6 6 5 5 5 6 4 4 3 5 6 4 0 2 1 3 4 3 7 3 4 3 4 4 6 7 7 5
9 11 11 9 10 12 9 13 11 12 10 11 12 14 12 13 13 12 10 9 10 10 10 8 8 7 5 6 6 4 6 4 6 8 6 5 7 6 6 8 9 9 8 8 9 8 8 8 8 7 7 7 6 6 6 4 4 5 5 6 6 6 6 6 6 4 5 5 7 7 5 4 3 2 1 5 5 3 5 6 4 4 2 3 3
7 11 9 10 10 13 11 11 11 13 9 11 12 12 14 13 13 12 11 9 11 10 10 8 7 6 7 8 7 7 8 7 5 6 6 6 6 7 8 7 8 8 8 8 9 9 8 8 8 8 7 7 6 6 6 6 6 6 5 5 6 5 4 6 8 8 3 3 5 7 4 3 4 2 4 0 5 6 4 5 6 2 1 2 2
9 11 10 12 11 13 13 10 10 13 10 10 12 12 14 14 14 13 11 11 10 10 9 9 9 7 7 7 7 7 7 7 5 6 5 4 5 6 6 6 7 7 8 8 9 9 8 8 8 7 7 7 6 7 8 7 6 5 5 5 5 5 6 7 8 7 6 5 4 6 5 4 4 4 4 5 4 4 8 6 5 6 1 3 2
12 12 11 13 13 13 13 10 7 12 10 11 11 11 12 13 13 12 12 11 10 11 11 10 9 9 8 7 7 7 6 6 4 2 3 3 6 6 4 6 7 8 8 9 9 9 9 9 8 7 7 8 7 7 7 7 7 7 6 6 5 6 5 7 6 7 6 7 4 4 4 5 5 5 4 3 4 3 7 6 7 4 3 3 4
13 14 11 13 13 14 13 11 7 10 11 10 12 11 12 11 12 13 12 10 10 11 11 10 9 8 8 7 8 7 5 5 3 5 3 3 4 5 7 8 8 8 9 8 8 8 9 8 8 9 9 9 8 8 8 7 7 7 8 7 6 6 5 5 7 7 7 7 6 5 4 3 2 3 3 4 3 5 7 5 4 5 6 6 3
12 13 10 14 13 13 14 13 10 8 11 9 11 12 12 11 12 13 13 11 10 11 11 11 9 8 9 9 8 7 6 5 5 6 6 2 3 4 5 7 8 9 8 8 8 8 9 8 9 9 9 8 8 8 8 8 9 8 8 7 6 7 7 7 8 8 7 7 7 6 8 8 8 7 7 6 5 4 4 7 6 4 5 7 6
13 13 11 14 13 12 13 14 13 10 12 11 9 12 13 12 12 13 10 10 11 11 11 11 9 9 9 9 9 7 6 6 7 7 6 5 5 5 6 6 6 7 7 7 7 9 8 8 8 7 7 7 8 8 8 8 8 7 7 6 7 7 7 7 7 8 8 7 8 7 8 8 7 7 6 6 6 6 6 7 7 3 3 5 6
12 12 12 13 15 14 13 14 13 11 11 14 10 12 12 12 14 14 12 10 11 11 12 10 9 9 9 9 8 7 7 7 7 7 6 6 6 4 4 7 7 6 7 7 9 10 8 8 8 8 8 8 8 8 9 9 8 8 8 8 8 8 8 8 8 10 9 8 8 8 8 8 9 8 6 6 6 6 6 6 5 2 6 5 2
13 12 13 14 14 14 13 12 12 11 11 14 11 12 12 12 13 14 14 12 10 11 12 11 10 10 9 9 8 7 7 8 7 7 7 6 5 6 5 6 7 8 8 9 11 10 8 9 9 9 9 9 9 9 10 9 8 9 9 9 10 9 8 9 10 10 8 9 8 7 8 9 8 6 5 5 5 4 5 7 6 3 3 6 2
14 13 13 15 15 14 13 12 11 11 12 12 11 11 12 12 14 15 14 11 11 12 11 12 11 10 9 8 8 7 8 7 7 7 7 6 6 6 6 5 6 7 8 9 9 9 8 8 9 9 9 9 8 8 9 9 8 8 8 9 9 8 9 9 9 10 9 9 8 7 7 7 6 5 5 3 2 6 7 7 6 7 5 3 4
14 14 13 16 16 15 13 13 12 11 12 11 12 11 13 13 14 15 15 14 13 12 12 13 12 10 9 8 9 8 6 6 6 6 6 6 6 6 7 6 7 8 8 7 9 8 9 8 8 9 9 9 8 9 9 8 9 8 8 8 10 7 8 9 9 9 10 9 5 1 7 8 8 6 12 12 8 7 8 3 3 5 8 7 4
15 15 13 15 15 16 15 14 13 12 11 13 12 11 13 14 14 15 14 13 13 13 13 12 11 9 10 9 8 7 8 8 8 9 9 7 6 6 7 8 8 7 8 7 9 9 9 8 8 9 8 7 6 7 8 8 7 6 7 7 9 8 6 7 6 7 8 3 1 3 3 2 3 7 5 6 8 9 5 2 5 6 4 4 9
14 15 14 16 16 17 15 14 15 14 13 13 14 11 13 14 16 16 14 13 12 11 11 10 10 11 10 10 9 9 9 9 8 9 8 7 7 8 8 8 10 9 7 7 4 5 5 6 6 7 5 4 5 4 4 5 5 6 5 6 6 4 4 4 3 3 4 4 2 5 4 1 3 3 5 7 6 5 3 2 2 1 6 8 5
13 14 13 15 15 16 15 15 15 15 15 13 11 10 12 14 15 16 16 15 14 12 10 9 10 9 9 10 10 9 8 8 8 8 8 8 9 9 9 9 7 5 5 5 5 6 6 5 5 4 2 1 0 0 1 1 1 1 2 1 5 6 5 5 5 4 3 4 6 6 6 6 1 1 4 4 5 6 3 3 2 2 5 6 7
14 14 13 15 16 17 16 16 16 15 15 13 11 8 14 15 16 15 15 13 11 11 11 11 10 10 9 8 8 8 8 8 9 8 7 8 9 8 6 5 7 5 4 2 1 1 2 2 2 3 4 5 6 6 5 6 5 5 5 5 6 7 6 5 5 4 4 5 6 5 7 4 5 2 2 4 6 6 1 3 7 5 3 3 3
13 14 12 14 16 16 16 15 15 14 13 12 9 10 13 11 13 15 15 13 13 13 12 11 9 10 9 9 9 8 8 9 8 5 6 8 4 1 0 1 3 4 3 5 4 4 5 5 6 7 8 8 7 7 6 5 6 5 5 4 3 4 4 4 3 4 5 4 3 5 5 3 4 5 4 5 5 5 2 1 6 7 4 2 5
11 13 13 13 14 15 15 14 13 13 13 13 9 9 11 12 13 14 13 13 13 12 11 10 9 9 10 9 8 7 8 5 4 7 6 1 4 3 3 5 6 4 4 5 6 6 7 9 9 10 11 11 10 10 10 8 7 5 6 5 5 4 5 4 3 3 5 4 3 1 3 6 5 6 3 3 5 6 4 3 7 6 8 8 7
9 11 13 13 13 14 14 14 14 15 14 14 10 9 10 12 12 11 13 13 13 13 11 10 9 9 9 8 5 4 4 5 3 2 5 6 4 5 4 7 6 5 6 7 8 8 8 9 11 11 11 10 10 10 9 9 9 9 8 7 7 6 6 6 6 5 5 4 3 3 2 3 4 5 5 6 5 6 6 5 6 6 6 7 5
6 6 9 12 12 12 11 12 13 13 12 13 10 7 10 11 12 12 13 14 12 11 11 9 9 9 9 5 4 3 3 6 8 6 7 6 6 5 5 7 6 7 8 7 8 8 9 10 11 10 10 9 10 9 9 9 8 8 8 8 9 8 7 7 7 7 7 7 7 5 3 1 2 5 6 5 6 6 6 6 6 5 6 6 7
7 7 9 10 11 12 11 12 10 10 10 11 10 7 10 10 11 12 12 12 12 9 9 9 9 9 7 4 3 4 7 8 9 7 8 7 7 6 6 7 7 8 7 7 7 8 10 10 10 9 9 10 9 8 8 8 7 7 8 7 7 7 7 6 4 3 5 5 6 6 6 5 2 2 3 4 4 5 4 5 5 5 6 6 6
8 8 9 12 13 12 10 9 8 9 10 9 9 8 9 11 12 12 12 9 8 7 9 9 8 6 3 6 6 7 8 9 9 9 8 8 7 7 7 6 6 8 7 7 8 9 9 10 10 9 9 8 8 7 7 7 6 6 5 5 5 5 6 6 6 6 5 4 5 5 6 5 4 3 3 3 3 3 3 4 4 4 4 4 6
9 8 9 10 10 13 13 11 10 9 8 9 9 8 8 10 11 11 12 12 11 9 7 6 4 5 6 7 8 7 8 8 8 9 8 8 8 7 8 7 6 7 8 8 10 11 9 9 9 8 8 7 7 6 6 5 5 4 4 4 5 4 5 5 5 6 6 5 5 5 5 4 4 4 4 4 3 3 4 3 4 4 4 4 4
7 7 10 11 12 12 12 11 10 9 9 9 8 9 10 10 10 7 6 7 6 8 7 7 7 8 8 8 8 8 8 9 8 9 9 8 7 8 7 6 7 9 8 9 9 10 8 8 7 7 6 6 6 6 5 5 4 3 4 4 4 4 4 4 4 5 6 6 6 6 6 6 6 4 4 4 3 3 3 4 4 3 4 4 4
7 9 11 13 12 11 12 11 10 9 8 8 7 5 5 7 8 8 8 8 8 9 9 9 9 10 9 8 8 8 8 9 9 9 9 9 8 8 7 7 8 8 8 9 9 9 9 9 7 7 6 5 6 6 5 6 6 7 6 6 6 6 6 6 6 6 6 6 6 6 6 6 8 11 12 10 9 7 3 3 3 3 4 3 2
7 9 11 11 14 13 12 10 9 9 8 8 7 8 9 10 9 9 10 9 10 10 11 10 11 10 8 8 9 9 9 9 10 10 8 8 8 8 8 9 9 8 8 8 9 8 8 7 7 6 6 6 6 5 10 13 10 7 5 4 4 4 4 5 5 5 5 5 5 5 6 13 13 12 10 11 11 11 9 4 4 3 4 4 4
9 7 8 10 12 13 11 10 9 10 11 9 9 9 8 10 11 11 12 10 12 12 11 12 11 9 10 9 10 9 9 10 9 9 8 8 8 8 8 8 8 8 8 8 8 8 7 6 7 7 7 6 5 6 11 10 11 14 8 5 5 5 4 4 4 5 5 6 5 5 4 8 9 9 6 10 9 10 9 7 6 6 3 3 4
9 9 6 6 8 10 12 12 11 11 11 11 10 10 10 10 10 12 11 11 12 12 13 11 11 10 10 10 10 10 10 9 9 9 9 8 8 8 8 8 8 9 8 8 9 7 6 6 5 5 5 4 4 8 10 11 12 13 12 6 5 5 5 5 5 5 6 6 6 6 5 4 4 6 4 4 7 10 11 9 8 6 5 5 4
10 11 10 9 9 11 14 13 12 12 12 13 14 12 11 11 11 10 11 12 12 13 12 12 11 11 10 10 10 11 10 9 9 9 8 8 8 9 9 9 9 7 8 9 6 5 4 3 4 5 5 4 3 10 10 13 13 13 13 9 5 5 5 6 6 6 6 6 6 6 6 5 5 11 6 4 4 5 9 11 9 9 7 4 4
9 11 12 11 8 7 12 15 14 12 13 12 13 14 12 11 12 11 13 12 13 12 12 12 11 11 10 10 10 11 10 9 8 9 9 9 9 9 8 8 7 7 7 6 5 4 3 3 4 4 3 3 3 10 11 12 12 13 12 9 5 6 5 5 6 6 6 6 6 5 5 5 5 5 4 3 3 4 5 5 4 4 4 3 5
12 11 12 12 12 9 8 9 10 12 12 12 11 13 13 12 12 13 12 13 12 13 12 11 12 10 11 10 11 11 10 9 9 8 9 9 9 9 8 6 6 6 5 5 4 4 3 3 3 3 2 3 5 12 11 12 11 11 11 8 5 5 5 5 6 6 7 7 6 5 5 6 5 4 2 5 4 3 3 4 3 4 4 3 3
13 15 14 15 15 14 13 11 9 11 10 12 14 13 14 12 11 13 12 12 13 13 12 11 11 10 10 10 11 11 10 9 9 9 10 10 9 8 7 6 5 5 4 4 4 4 4 4 3 3 2 3 3 10 10 10 10 10 10 5 5 5 5 5 6 6 7 7 6 5 5 5 5 2 5 8 8 2 3 3 4 4 4 3 4
13 16 15 15 15 15 14 13 11 11 13 12 12 13 14 14 13 12 13 12 13 13 12 12 11 11 10 10 11 11 10 9 9 10 10 9 8 7 6 5 6 5 5 5 5 4 4 4 3 2 2 3 3 6 8 8 8 11 7 5 4 5 5 5 6 6 6 6 5 4 3 3 3 2 5 6 9 6 4 4 4 4 4 3 6
13 10 14 13 13 15 15 17 15 13 13 13 14 14 15 14 14 13 13 12 13 12 11 11 11 10 10 10 10 10 10 9 9 9 8 7 6 6 6 5 7 6 6 5 4 5 4 4 4 3 3 3 4 6 8 9 9 10 8 4 5 5 6 6 7 6 5 5 8 17 8 4 2 3 6 7 9 6 4 4 4 3 5 6 6
12 17 15 14 16 18 17 17 18 17 14 14 15 16 16 15 13 13 13 13 12 12 11 11 11 10 10 10 10 10 10 9 8 7 7 7 7 6 5 5 6 6 6 5 5 5 5 5 4 3 7 4 3 5 7 8 10 10 9 4 5 4 5 6 6 7 5 6 7 9 13 9 5 5 7 7 8 7 2 3 2 3 4 4 4
4 6 13 16 14 15 15 16 16 16 16 15 15 14 15 15 13 12 12 12 11 10 10 11 11 11 10 10 9 10 8 8 8 7 7 7 6 6 6 7 6 6 6 5 4 5 5 4 3 3 3 3 3 4 5 10 11 11 12 7 5 6 7 7 6 6 7 6 6 6 7 11 6 7 6 7 6 7 3 1 1 3 2 3 4
8 8 6 8 14 17 17 16 15 17 16 15 13 14 13 12 12 11 11 10 10 11 11 11 11 11 10 10 8 8 9 8 7 7 7 6 6 7 7 7 7 6 5 6 5 3 4 3 2 3 3 4 4 4 6 10 11 11 11 9 5 6 6 6 6 5 5 6 6 6 5 11 6 5 4 6 5 6 6 1 1 0 0 2 5
2 6 7 7 5 9 13 12 11 14 15 14 15 14 12 11 11 12 11 10 11 11 10 11 11 10 9 9 8 7 8 7 6 5 6 6 5 6 7 6 6 5 5 5 3 3 3 3 3 3 3 3 5 8 5 8 10 11 10 9 6 5 4 5 7 7 6 6 6 6 6 9 10 9 7 7 7 6 6 1 0 2 4 5 4
9 7 6 10 8 7 11 12 10 10 11 13 17 16 13 12 13 12 11 11 11 11 11 11 10 9 8 7 6 7 6 5 5 6 6 7 7 8 7 7 6 6 6 5 3 3 3 3 3 5 4 4 5 5 8 7 10 11 11 10 7 5 9 4 4 6 6 6 6 6 7 12 11 10 9 9 8 8 6 3 2 1 2 4 5
6 7 8 10 12 10 9 9 8 7 7 9 15 16 13 14 13 10 11 11 11 11 11 11 9 8 7 6 6 6 5 5 6 7 7 8 9 8 7 6 6 6 6 5 3 4 3 4 5 6 6 6 5 5 6 8 8 10 9 10 9 8 6 4 3 3 5 5 6 6 8 13 12 12 12 11 12 11 9 12 12 11 11 10 6
9 11 11 11 13 14 12 11 9 10 8 8 9 15 14 13 9 9 11 11 11 11 11 10 9 7 7 6 7 6 5 5 5 7 8 8 9 8 8 5 6 6 5 5 3 3 4 3 5 5 6 6 6 6 6 7 10 10 10 10 9 9 8 7 4 5 3 4 6 9 11 11 12 12 13 11 10 12 14 13 13 11 9 6 6
5 9 12 12 13 13 14 14 11 10 9 9 10 13 16 11 10 10 10 11 11 10 9 8 6 6 6 7 7 6 6 6 6 6 7 6 8 7 7 6 6 5 3 4 3 2 2 3 3 4 5 5 6 6 7 8 8 9 10 14 13 11 9 6 5 4 8 9 10 10 9 9 8 8 6 5 5 7 11 12 12 10 6 6 5
15 5 12 13 14 14 13 12 11 7 9 10 12 10 12 12 11 11 11 11 10 10 9 8 8 7 5 6 8 6 6 6 6 6 6 6 6 7 7 7 6 6 4 3 2 2 2 2 3 3 4 5 6 6 7 7 7 7 7 8 9 9 11 8 6 5 6 5 7 7 7 8 6 8 9 8 7 7 6 6 5 5 5 5 5
16 12 8 12 13 13 14 13 11 8 8 9 10 11 11 12 12 11 11 11 11 11 11 11 10 8 6 6 7 10 9 6 5 7 7 6 5 6 7 7 7 7 6 3 3 3 2 2 3 3 5 6 6 6 7 7 8 7 6 6 6 7 6 6 6 6 6 5 5 6 8 8 8 9 8 8 8 7 7 6 6 4 3 3 3
11 14 8 8 9 12 11 12 10 8 8 9 9 9 10 11 11 11 11 12 11 11 11 11 10 9 8 7 7 7 7 7 6 6 6 4 6 6 7 4 1 1 5 7 5 2 2 2 1 2 4 5 5 6 6 6 6 6 4 5 7 6 5 6 6 6 5 7 8 9 8 9 8 8 8 8 8 8 8 7 8 8 7 7 6
7 6 10 6 8 10 11 10 8 7 8 9 9 8 7 8 8 8 9 10 10 9 9 9 9 8 7 7 7 7 7 7 7 8 8 6 8 9 5 5 4 4 5 2 2 3 4 2 1 0 1 1 1 4 7 10 9 7 5 4 1 5 9 8 10 14 8 7 7 7 7 7 7 7 7 7 8 7 7 7 7 6 7 7 7
11 11 7 7 4 8 10 10 8 7 8 9 9 8 8 7 7 7 8 9 9 9 8 8 9 8 8 7 7 7 7 7 7 7 7 7 6 6 9 10 7 5 3 4 5 4 2 1 0 0 2 3 6 6 7 7 5 2 6 10 13 14 13 13 13 10 9 8 7 7 7 7 6 6 6 6 7 7 7 7 7 7 7 6 6
Wind_Direction
181 187 174 163 159 164 157 165 164 165 166 162 161 162 167 171 167 173 176 175 174 170 178 176 179 188 205 199 207 210 209 214 221 224 223 219 218 207 199 212 217 217 216 210 220 230 234 239 223 245 201 225 245 243 243 237 222 205 227 260 250 279 298 277 281 357 345 315 319 301 303 276 245 221 226 226 234 237 249 254 256 262 253 248 247
171 180 176 163 157 167 154 166 165 166 170 166 163 165 168 168 171 172 164 173 178 178 180 179 184 183 182 197 203 209 211 208 223 227 224 226 223 215 204 206 207 211 215 212 219 218 232 240 246 248 245 230 228 237 234 248 244 221 207 291 241 236 266 265 276 49 338 247 306 324 320 314 297 293 242 226 229 235 238 244 258 248 247 240 245
172 175 181 169 154 163 161 167 172 171 170 172 164 166 166 167 171 171 166 170 176 179 178 183 189 192 182 197 200 221 225 212 213 218 216 223 225 217 208 206 202 208 213 213 216 223 225 227 237 243 246 240 255 275 268 261 255 241 219 217 270 265 257 277 264 164 241 100 104 7 310 353 325 338 325 186 213 233 229 239 240 235 244 239 234
176 177 183 173 157 159 170 166 171 176 170 171 163 167 166 168 169 173 170 170 174 182 185 190 188 194 196 194 200 197 212 223 225 233 234 231 233 222 211 201 200 206 209 210 217 221 221 222 228 228 239 233 226 238 243 238 234 243 243 238 219 276 274 283 254 200 171 127 307 226 244 19 323 311 307 292 270 229 229 249 252 249 251 247 207
179 179 179 177 163 160 175 169 166 177 170 172 168 167 171 171 171 174 170 171 179 181 187 186 184 193 216 231 212 234 266 270 239 225 210 219 224 210 206 199 201 205 204 206 208 216 217 221 224 231 234 240 224 228 223 216 211 215 217 220 207 215 253 257 289 226 204 193 184 58 324 3 235 255 335 288 322 329 287 258 246 252 257 255 233
174 181 180 177 170 165 171 174 162 176 169 172 170 168 169 173 171 171 170 169 181 185 184 174 186 189 185 196 213 219 235 250 232 228 202 203 205 212 205 202 202 206 202 204 208 212 215 218 217 223 229 234 226 227 231 238 238 226 221 211 226 224 227 249 267 277 231 211 206 203 182 221 231 252 26 291 316 270 285 301 317 305 275 269 254
176 182 173 168 178 167 171 181 164 174 173 170 169 168 168 169 170 171 172 176 182 189 186 175 181 180 189 196 198 198 212 236 233 233 183 210 204 200 206 203 207 204 207 206 211 212 214 218 219 222 227 229 229 224 232 228 227 227 223 208 226 234 214 235 242 256 296 268 221 228 226 221 172 132 236 0 323 316 324 319 312 282 297 285 256
177 184 173 172 175 172 172 182 171 171 167 172 169 167 168 168 170 175 177 177 183 185 187 184 185 185 191 204 202 208 201 221 226 226 214 210 205 212 202 208 205 208 208 211 213 214 215 220 223 226 229 234 226 226 230 233 238 248 236 220 224 226 219 220 239 238 218 257 214 222 230 232 209 219 188 197 216 280 302 307 293 293 222 191 205
178 183 176 172 176 175 175 175 176 173 164 174 172 167 170 166 170 174 176 178 184 182 185 193 192 187 190 197 208 218 215 221 233 234 202 207 190 201 201 216 212 212 213 212 213 215 216 219 219 223 228 233 228 234 235 230 227 233 242 249 245 239 214 221 220 231 214 236 251 258 231 227 212 215 227 188 191 211 274 276 288 319 323 258 199
181 181 173 172 176 175 177 174 172 177 170 166 174 165 169 165 166 171 178 180 183 183 187 193 196 186 187 197 200 217 231 250 265 267 228 201 179 187 202 200 211 213 219 218 218 220 221 221 221 221 224 230 228 231 231 229 230 232 235 232 229 238 233 225 223 236 224 234 218 221 207 216 216 237 232 206 232 209 236 257 255 279 303 293 283
182 176 170 172 177 174 173 176 176 173 177 164 172 170 171 171 168 171 178 182 182 183 185 192 195 190 192 194 197 202 218 222 248 264 271 239 220 221 205 215 205 211 214 223 220 223 226 223 221 222 223 224 226 226 227 225 228 229 235 234 233 228 238 236 240 239 235 234 228 209 212 200 198 204 210 202 197 214 241 261 272 243 241 289 290
180 170 166 170 173 179 176 175 176 174 179 172 167 173 175 176 172 173 174 179 185 183 184 191 191 198 197 194 198 203 197 208 216 234 243 249 239 209 219 212 237 224 219 226 232 230 227 228 227 226 225 224 225 222 225 225 228 228 231 229 236 234 235 231 230 239 235 230 231 218 220 217 219 219 217 197 195 223 220 250 257 273 289 239 281
180 170 165 172 177 180 181 177 173 175 178 180 164 173 175 178 179 177 180 180 183 183 184 188 192 196 198 198 203 201 203 208 217 225 232 235 240 238 185 211 218 235 235 228 234 233 228 232 233 230 232 227 226 221 227 226 227 225 227 230 231 233 229 227 232 236 226 217 222 219 218 221 226 222 212 205 208 215 211 245 257 209 248 280 284
183 174 168 174 179 181 182 178 177 180 180 181 168 171 175 178 181 182 186 183 182 182 185 189 197 200 199 198 204 200 208 211 219 221 232 226 221 232 222 202 204 216 222 224 228 229 225 225 225 228 229 229 223 220 223 225 223 224 227 230 233 233 233 229 231 237 229 222 218 221 221 221 227 219 212 205 212 202 222 222 242 240 205 250 297
186 180 170 175 179 181 183 182 181 183 187 182 178 168 177 178 181 187 188 188 183 186 186 192 199 204 202 203 201 204 212 217 222 221 228 229 232 232 242 235 210 217 216 225 227 228 224 220 222 226 229 228 224 222 226 227 228 231 232 233 237 237 234 234 235 235 234 226 223 229 232 224 225 214 204 237 291 226 214 216 199 247 275 252 273
186 185 174 176 176 179 184 187 186 183 189 191 187 171 178 179 184 188 187 187 189 187 190 193 199 201 201 202 206 206 215 219 237 240 236 227 232 222 238 235 233 237 240 238 242 235 238 232 223 226 230 228 220 220 224 227 229 228 236 238 244 239 237 236 237 237 241 233 193 357 322 326 328 348 34 24 320 298 271 251 211 210 232 280 319
185 185 177 176 177 181 182 186 190 187 188 196 196 179 178 177 185 189 191 189 190 192 194 195 196 197 205 206 206 208 211 217 224 235 239 238 235 235 237 240 240 238 245 244 250 252 250 250 247 243 240 235 225 223 226 231 231 230 236 242 246 247 244 247 252 248 250 289 84 170 94 307 15 81 132 178 230 241 229 217 205 220 147 173 254
183 182 178 176 179 181 183 186 189 191 189 193 198 183 177 179 186 187 188 190 195 194 196 195 195 201 204 208 211 209 211 219 223 230 235 237 241 242 245 251 248 246 247 265 281 280 275 268 257 254 248 228 229 238 240 243 240 237 243 247 256 275 269 269 285 323 348 340 321 60 96 145 103 140 196 216 251 300 2 331 306 57 152 191 201
185 179 175 176 179 182 185 187 191 193 194 192 192 182 176 180 185 186 188 191 190 191 196 197 197 202 204 207 207 210 215 219 223 227 229 232 239 241 243 249 272 288 289 275 264 252 246 250 245 238 208 208 160 241 239 239 218 254 288 305 20 23 29 21 25 18 338 350 17 51 78 57 57 247 292 341 293 284 315 15 291 182 190 188 201
185 182 176 176 178 183 185 187 190 193 195 197 185 167 179 180 183 188 191 189 187 189 192 196 200 202 208 207 209 210 214 217 224 226 227 235 241 246 257 265 253 264 279 303 345 10 51 72 82 86 67 51 43 26 26 42 56 46 31 31 29 30 26 19 14 1 337 12 28 68 79 4 308 304 264 259 277 285 260 263 280 268 220 180 166
185 183 176 177 178 181 184 187 189 192 196 198 182 168 176 180 183 184 188 189 189 193 191 198 195 204 207 206 209 207 216 222 229 225 229 238 262 315 154 142 71 51 63 68 64 63 65 67 65 63 62 55 49 40 35 54 62 52 26 10 43 28 13 356 23 335 349 7 32 73 116 152 311 293 268 284 289 291 305 90 287 285 275 208 204
183 184 177 177 179 181 182 185 186 189 193 199 184 162 170 177 184 186 187 186 190 193 194 196 198 202 206 210 211 207 220 232 236 233 241 313 87 100 88 78 72 47 56 59 48 43 50 52 54 54 54 50 46 40 33 35 40 26 9 8 23 23 9 3 359 355 340 345 345 11 145 150 199 276 290 249 259 284 276 195 211 232 249 251 225
180 184 179 176 178 182 182 181 182 187 192 197 187 163 171 174 179 187 184 192 188 190 193 191 196 199 208 213 208 217 212 218 225 61 87 98 90 77 66 79 73 66 56 59 62 62 60 61 58 54 54 50 47 46 39 39 35 27 18 10 10 13 3 4 357 349 334 326 334 341 339 152 173 212 243 258 269 271 271 262 259 247 257 262 253
174 175 180 177 178 179 176 179 179 185 188 192 189 159 169 172 177 182 190 191 191 192 188 186 189 201 205 188 177 178 104 92 92 93 88 83 83 70 66 70 68 66 66 62 61 61 63 64 64 60 56 56 52 50 47 40 35 31 25 17 13 17 19 12 2 357 347 347 340 339 347 343 191 210 239 250 255 258 261 267 267 251 238 248 254
175 167 176 180 179 177 175 177 174 178 183 186 188 159 168 175 175 182 193 192 191 184 182 187 188 193 195 156 117 94 93 92 94 92 87 82 78 76 67 70 72 69 64 66 64 64 66 64 65 62 61 58 55 53 51 43 36 30 27 18 8 2 357 353 348 341 341 335 331 328 322 324 315 280 266 270 277 272 274 279 280 265 253 249 251
181 168 169 182 180 177 173 172 169 171 175 181 188 167 172 174 181 181 184 185 187 179 182 186 191 177 135 107 112 106 100 101 99 92 89 85 81 78 76 68 71 75 69 64 70 70 70 72 71 69 68 65 61 57 54 48 38 26 24 15 2 352 342 336 330 332 328 326 323 319 316 317 313 302 284 279 279 284 287 284 280 281 271 254 247
178 169 175 181 179 178 176 172 170 169 173 177 183 172 168 176 184 184 181 179 176 170 167 158 128 120 111 111 113 109 107 101 96 95 92 86 80 78 75 72 68 73 71 73 74 77 71 75 73 72 67 64 63 59 54 46 36 26 12 7 350 339 332 325 324 321 322 322 320 316 316 313 310 297 290 291 280 293 295 288 283 286 288 286 277
166 167 170 177 181 177 174 176 170 170 171 173 178 172 166 169 174 175 164 159 153 143 136 128 119 113 110 111 108 108 102 101 98 94 88 85 79 74 73 73 69 65 63 74 81 81 78 73 71 70 65 60 55 51 44 35 29 16 4 354 343 332 325 320 323 326 329 334 334 335 332 329 317 308 308 308 316 310 289 275 273 274 281 288 279
169 174 176 174 176 175 175 177 177 168 164 163 151 150 149 144 145 148 148 150 142 131 124 120 115 112 112 112 106 97 96 93 91 87 83 81 79 76 70 66 65 68 70 77 86 86 85 79 70 68 65 55 50 39 31 21 11 5 359 344 335 329 326 330 331 334 336 336 336 339 339 329 334 342 347 354 348 339 308 289 287 283 288 288 284
173 181 173 179 173 171 174 173 168 158 150 147 145 145 154 146 141 138 134 134 125 121 120 117 113 113 109 103 100 97 93 90 85 83 82 80 78 75 73 72 70 70 75 81 84 83 79 83 81 68 61 52 43 34 25 21 13 359 340 332 329 328 332 330 331 332 331 329 330 331 327 337 340 340 347 351 349 339 332 305 278 247 263 271 269
155 173 177 172 174 170 164 159 158 154 152 147 145 141 145 139 137 134 131 133 123 120 116 116 112 110 107 103 98 95 92 87 89 86 81 77 76 78 77 75 73 70 71 81 87 82 77 70 68 62 54 50 40 28 16 7 5 3 5 2 354 346 340 336 333 334 329 328 325 323 317 329 334 327 346 348 345 346 345 331 317 319 300 245 243
150 148 146 162 164 158 158 157 155 154 147 141 136 136 135 133 130 127 127 124 118 117 116 111 111 108 105 102 101 98 93 92 89 85 83 83 82 79 77 75 73 71 70 71 70 71 71 68 68 68 61 47 36 19 6 6 3 8 12 15 349 344 338 337 335 329 326 321 320 321 323 319 318 321 344 334 333 333 336 339 345 348 351 316 288
148 145 147 152 163 167 161 157 152 153 151 147 140 134 132 133 126 124 121 115 114 115 113 110 110 108 107 105 103 99 97 93 90 90 88 84 80 76 78 81 76 74 70 68 75 82 91 93 83 76 61 38 21 12 6 7 4 7 8 10 352 340 338 333 326 324 319 318 317 320 322 321 314 330 339 325 323 320 327 333 338 341 357 344 272
141 143 144 145 150 180 164 159 156 153 145 143 137 129 127 124 120 119 115 115 115 111 111 113 111 110 110 107 104 101 98 98 96 92 89 85 82 84 83 81 83 77 79 81 80 86 88 89 86 79 66 27 11 12 11 10 7 7 2 4 347 336 329 322 319 317 313 312 313 312 314 311 305 310 301 309 319 320 321 325 331 337 347 359 22
142 139 142 145 147 152 147 137 138 137 132 122 115 119 120 117 120 116 116 116 114 115 114 115 112 112 111 109 107 105 105 103 99 95 90 87 87 84 81 86 91 92 93 90 78 69 65 75 93 96 81 37 16 19 15 12 6 356 349 355 333 325 318 316 314 312 311 306 306 304 298 295 301 294 320 4 340 320 342 331 342 345 347 354 359
154 147 148 147 148 150 148 139 133 127 124 125 128 129 122 121 119 118 117 116 117 114 116 116 115 117 116 117 114 112 110 108 102 94 92 92 91 98 104 105 98 90 81 79 64 62 55 61 83 101 77 30 11 23 12 8 357 345 347 347 337 332 324 317 312 313 316 313 310 307 292 290 303 302 13 358 348 5 22 346 354 346 348 354 7
162 152 156 151 145 140 136 131 131 131 130 130 129 125 120 119 115 116 116 118 117 118 121 122 122 122 121 120 117 115 112 107 102 98 100 106 111 111 114 114 101 97 90 74 72 61 57 64 76 90 62 16 357 10 7 355 350 347 341 346 333 326 325 325 325 321 311 313 304 328 316 341 13 29 356 1 346 11 13 -0 1 348 347 10 359
154 147 140 141 137 132 136 136 135 134 134 133 132 127 123 120 121 123 121 120 121 124 127 125 123 121 118 114 112 111 110 105 102 110 118 119 117 116 118 112 109 104 89 86 78 69 53 49 56 68 56 30 358 353 4 352 353 348 351 348 339 337 333 338 329 321 319 338 351 17 47 32 14 338 1 356 353 16 13 4 2 1 19 12 355
160 151 147 146 145 143 143 140 138 137 141 136 131 127 123 124 127 127 125 125 128 130 127 122 118 115 111 110 110 109 108 109 116 123 125 124 123 124 118 108 106 98 96 94 86 76 61 44 40 38 46 43 351 338 352 353 358 358 357 349 348 335 345 344 338 331 344 354 -0 6 25 29 17 2 356 350 352 7 4 359 356 45 38 10 341
180 152 146 143 137 130 134 139 139 137 135 131 129 126 126 128 130 128 125 124 124 121 116 113 114 114 114 113 115 112 112 120 127 128 124 125 126 114 112 108 100 98 99 94 87 78 77 62 46 32 6 348 350 345 345 354 1 359 356 350 349 358 355 343 338 343 349 360 4 3 9 30 24 7 357 350 335 339 329 318 30 53 44 340 314
159 145 136 142 148 147 148 145 139 137 135 130 124 120 119 120 120 114 114 116 118 118 117 117 116 114 113 114 111 116 123 125 130 134 132 126 122 119 112 107 106 102 99 91 83 83 76 57 25 14 13 356 344 353 342 354 356 357 355 355 346 351 344 340 336 345 2 -0 359 1 348 18 5 352 350 345 334 322 335 39 115 141 232 288 302
85 126 126 117 106 115 117 119 128 132 130 126 121 115 115 116 112 112 118 121 118 116 114 112 109 110 113 112 112 117 123 128 127 116 113 108 108 108 106 103 102 102 97 89 84 73 65 39 10 359 4 345 343 355 349 349 356 352 353 356 359 334 330 336 347 0 4 12 6 -0 359 3 3 1 354 340 328 317 307 357 91 261 288 298 311
144 139 120 116 102 102 110 117 118 118 121 124 121 120 121 120 119 126 126 120 114 111 108 104 104 108 111 113 116 121 121 119 115 111 106 104 103 104 102 100 99 96 92 88 73 63 59 41 22 2 355 345 342 343 349 349 352 354 350 352 351 340 340 358 4 354 357 356 357 5 7 10 11 4 0 6 16 29 41 45 29 33 312 316 14
100 88 92 97 102 97 93 86 88 89 99 116 122 123 125 123 125 128 120 115 111 109 107 109 113 114 114 109 110 114 113 112 112 107 103 104 107 109 107 105 104 102 98 91 77 69 56 47 28 5 354 349 345 342 338 353 354 353 355 355 351 356 1 344 338 338 338 350 357 1 5 7 10 13 12 25 44 45 51 55 69 75 71 63 60
117 117 115 116 115 113 101 89 85 84 83 89 103 114 113 112 115 115 115 114 112 110 111 116 119 116 108 113 113 113 114 113 113 109 106 110 112 114 109 107 105 97 98 100 91 68 61 43 31 13 345 345 346 340 345 345 356 0 8 13 13 26 26 17 1 331 336 334 342 356 5 2 2 6 11 16 30 38 40 45 48 57 64 61 64
33 90 99 101 99 98 100 98 88 88 93 98 103 112 114 117 118 115 115 114 112 112 112 110 102 98 109 112 106 97 92 91 88 88 95 101 114 116 113 109 100 95 95 102 104 87 66 57 44 4 356 339 341 353 355 352 359 354 3 5 16 31 39 34 19 339 330 335 339 341 348 352 349 354 2 12 24 34 41 40 46 47 39 43 41
337 67 106 106 106 104 103 98 94 96 107 111 110 108 117 123 123 122 118 115 115 115 109 101 105 107 106 107 104 104 98 92 89 88 89 92 99 105 109 108 108 107 98 89 89 88 73 59 39 7 353 357 5 1 357 352 356 356 358 353 10 17 17 26 27 13 2 347 334 338 339 345 8 29 37 35 33 32 34 29 28 31 41 47 60
334 332 85 102 105 112 114 115 118 118 114 113 113 117 122 125 126 126 126 125 127 132 133 134 129 125 123 118 113 109 104 96 97 103 103 91 81 105 110 119 129 127 122 122 117 107 110 103 68 24 19 21 8 1 5 355 336 342 342 353 11 28 18 23 23 11 19 8 18 15 25 30 31 37 33 35 35 34 33 26 24 18 21 18 26
1 330 355 72 107 106 108 109 107 109 109 106 107 113 121 127 129 133 135 136 138 136 134 131 129 130 129 124 118 119 117 113 105 87 72 87 127 123 113 85 18 187 152 149 150 170 186 203 147 92 54 24 12 4 341 337 310 298 299 337 22 11 10 35 35 46 43 32 30 29 23 26 28 32 33 32 32 33 31 26 26 23 19 21 21
99 18 351 35 73 92 96 92 90 94 101 105 108 111 117 123 128 133 135 135 135 132 130 127 126 126 127 125 126 123 123 122 117 114 106 79 44 55 62 114 113 64 58 43 140 178 198 189 166 239 167 80 295 285 322 333 321 332 357 11 20 46 48 43 37 44 53 49 33 34 22 18 20 25 31 31 29 31 31 29 27 27 28 30 33
109 93 57 355 46 97 102 107 114 120 121 122 123 129 132 137 137 140 140 140 139 134 129 129 131 135 139 133 130 125 126 122 121 119 119 117 105 58 40 41 56 76 61 59 58 69 53 352 310 356 314 293 296 312 333 322 329 9 44 45 44 43 41 40 35 46 36 40 31 33 22 18 11 20 29 24 26 30 27 27 22 26 33 34 36